Regional Weather Roundup
Issued by NWS Upton, NY

Current Version | Previous Version | Graphics & Text | Print | Product List | Glossary Off
Versions: 1 2 3 4 5 6 7 8 9 10 11 12 13 14 15 16 17 18 19 20 21 22 23 24 25 26 27 28 29 30 31 32 33 34 35 36 37 38 39 40 41 42 43 44 45 46 47 48 49 50

000
ASUS41 KOKX 301905
RWROKX

REGIONAL WEATHER ROUNDUP
NATIONAL WEATHER SERVICE NEW YORK NY
200 PM EST FRI JAN 30 2015

NOTE: "FAIR" INDICATES FEW OR NO CLOUDS BELOW 12,000 FEET WITH NO
SIGNIFICANT WEATHER AND/OR OBSTRUCTIONS TO VISIBILITY.

NYZ071-072-176-178-NJZ106-104-302000-
NEW YORK CITY METRO AREA


CITY           SKY/WX    TMP DP  RH WIND       PRES   REMARKS
CENTRAL PARK   CLOUDY    37  20  50 NW13G26   29.84F WCI  29
LAGUARDIA APRT CLOUDY    36  22  56 NW18G30   29.82S WCI  26
KENNEDY INTL   PTSUNNY   37  21  52 NW20G35   29.82F WCI  27
NEWARK/LIBERTY PTSUNNY   37  22  54 NW16G24   29.83F WCI  28
BRNX BOT. GARD   N/A    N/A N/A N/A NW8       29.82F
TETERBORO      CLOUDY    37  20  50 NW17G24   29.82F WCI  27
$$

NYZ177-179-078>081-302000-
LONG ISLAND NEW YORK

CITY           SKY/WX    TMP DP  RH WIND       PRES   REMARKS
FARMINGDALE    CLOUDY    37  24  59 NW14G20   29.80F WCI  28
ISLIP          CLOUDY    35  25  66 NW14      29.77F WCI  26
SHIRLEY        CLOUDY    34  28  79 W12       29.79F WCI  25
WESTHAMPTON    CLOUDY    34  28  79 NW13      29.79F WCI  25
MONTAUK POINT    N/A     35  28  75 NW14G21   29.75F WCI  26
$$

NYZ052-065-067-302000-
HUDSON VALLEY

CITY           SKY/WX    TMP DP  RH WIND       PRES   REMARKS
WHITE PLAINS   PTSUNNY   35  20  54 NW21G30   29.78F WCI  24
NEWBURGH       PTSUNNY   34  19  55 NW17G29   29.82F WCI  23
MONTGOMERY     PTSUNNY   34  17  50 NW15G22   29.81S WCI  24
POUGHKEEPSIE   CLOUDY    37  19  48 NW15G22   29.81S WCI  28
ALBANY         PTSUNNY   29  17  61 NW21G30   29.84S WCI  16
$$

NJZ001-105-106-008-010-013-015-019>022-104-302000-
NEW JERSEY

CITY           SKY/WX    TMP DP  RH WIND       PRES   REMARKS
NEWARK/LIBERTY PTSUNNY   37  22  54 NW16G24   29.83F WCI  28
TETERBORO      CLOUDY    37  20  50 NW17G24   29.82F WCI  27
CALDWELL       PTSUNNY   36  17  46 N14G23    29.84F WCI  27
MORRISTOWN     PTSUNNY   37  19  48 N15G29    29.85F WCI  28
SOMERVILLE     PTSUNNY   37  24  59 NW9G22    29.85S WCI  30
SUSSEX         LGT RAIN  34  16  47 NW14G22   29.84F WCI  25
ANDOVER          N/A     33  16  49 N13G24    29.85S WCI  24
TRENTON        CLOUDY    37  20  50 NW16G24   29.86S WCI  28
MILLVILLE      CLOUDY    40  19  43 NW15G25   29.90S WCI  32
ATLANTIC CITY  PTSUNNY   40  21  46 NW22G31   29.87S WCI  30
WRIGHTSTOWN    CLOUDY    38  22  52 NW15G23   29.85S WCI  29
TOMS RIVER     CLOUDY    37  21  52 NW18G28   29.85F WCI  27
BELMAR         CLOUDY    37  21  52 NW21G28   29.83F WCI  27
$$

PAZ047>061-062-071-302000-
EASTERN PENNSYLVANIA

CITY           SKY/WX    TMP DP  RH WIND       PRES   REMARKS
PHILADELPHIA   PTSUNNY   40  17  39 NW23G36   29.91S WCI  30
ALLENTOWN      PTSUNNY   35  19  52 NW12G21   29.90S WCI  27
SCRANTON       LGT SNOW  30  21  69 NW14G24   29.90R WCI  19
$$

CTZ002-004>006-009-010-012-RIZ004-006-007-MAZ004-011-015-302000-
SOUTHERN NEW ENGLAND
 IN CT

CITY           SKY/WX    TMP DP  RH WIND       PRES   REMARKS
BRADLEY INTL   CLOUDY    34  22  61 NW16      29.75S WCI  24
HARTFORD       CLOUDY    34  23  64 NW8       29.77S WCI  27
DANBURY        CLOUDY    33  21  61 N8        29.79F WCI  26
WTRBRY/OXFORD  CLOUDY    30  18  59 N17G26    29.76S WCI  18
BRIDGEPORT     CLOUDY    34  26  72 NW13G21   29.78F WCI  25
MERIDEN        CLOUDY    34  22  61 NW16G23   29.78R WCI  24
NEW HAVEN      CLOUDY    34  24  67 NW14G21   29.78S WCI  25
CHESTER        MIX PCPN  32  25  74 NW14G22   29.74F WCI  22
GROTON         CLOUDY    33  27  78 NW9       29.75R WCI  25
WILLIMANTIC    CLOUDY    34  25  69 NW7       29.75S WCI  28

 IN RI

CITY           SKY/WX    TMP DP  RH WIND       PRES   REMARKS
PROVIDENCE     CLOUDY    34  28  79 NW6       29.72S WCI  29
BLOCK ISLAND   CLOUDY    34  27  75 NW9G16    29.72R WCI  26
WESTERLY       CLOUDY    34  28  79 VRB5      29.75R WCI  30

 IN MA

CITY           SKY/WX    TMP DP  RH WIND       PRES   REMARKS
BOSTON         CLOUDY    33  29  85 NW8       29.72F FOG     WCI  26
WORCESTER      CLOUDY    30  25  81 NW12      29.68S WCI  20
WESTFIELD      CLOUDY    34  22  61 NW15      29.75R WCI  24
PROVINCETOWN   CLOUDY    34  32  93 NW9       29.71S WCI  26
NANTUCKET      CLOUDY    38  35  89 NW5       29.69F WCI  34
$$

ANZ330-335-338-340-345-350-353-355-302000-
COASTAL MARINE OBSERVATIONS


STATION/POSITION TIME  SKY/WX   TEMP    WIND        PRES    VSBY  WAVE
                                AIR SEA DIR/SP/G                  HT/PER
                 (UTC)          (F)     (DEG/KT/KT) (MB)    (MI)  (FT/S)
NY HARB ENTRANCE 1900            38 40  310/ 23/ 27 1008.9          3/ 4
4S FIRE IS       1900               37                N/A           3/ 6
20S FIRE ISLAND  1800               42              1009.9          5/ 5
23SW MTP         1900                                 N/A           4/ 6
HUDSON CANYON    NOT AVBL
EXECUTION ROCKS  1900            36 33  320/ 17/ 25   N/A
WESTERN LI SOUND 1900            36     310/ 16/ 19   N/A           1/ 2
CENTRAL LI SOUND 1800            34 35  300/ 16/ 21   N/A           1/ 2
EASTERN LI SOUND NOT AVBL
ROBBINS REEF     1900            36     330/ 19/ 24 1008.9
$$


>>>>>>>>>>>>>>>>>>>>>>>>>>>> KEY <<<<<<<<<<<<<<<<<<<<<<<<<<<
>                                                          <
>     SKY/WX - SKY CONDITION/PRESENT WEATHER               <
>     TMP    - TEMPERATURE IN FAHRENHEIT                   <
>     DP     - DEWPOINT IN FAHRENHEIT                      <
>     RH     - RELATIVE HUMIDITY IN PERCENT                <
>     WIND   - DIRECTION AND SPEED IN MPH                  <
>     PRES   - MEAN SEA LEVEL PRESSURE IN INCHES OF HG     <
>     WCI    - WIND CHILL INDEX                            <
>     VSB    - VISIBILITY IN MILES                         <
>     HX     - HEAT INDEX                                  <
>     TC     - TEMPERATURE IN CELSIUS                      <
>     VRB    - VARIABLE WIND DIRECTION                     <
>                                                          <
>>>>>>>>>>>>>>>>>>>>>>>>>>>> KEY <<<<<<<<<<<<<<<<<<<<<<<<<<<




USA.gov is the U.S. government's official web portal to all federal, state and local government web resources and services.